Time,TemperatureF,DewpointF,PressureIn,WindDirection,WindDirectionDegrees,WindSpeedMPH,WindSpeedGustMPH,Humidity,HourlyPrecipIn,Conditions,Clouds,dailyrainin,SoftwareType,DateUTC
2013-05-21 00:01:00,59.5,58.6,29.95,NE,53,0.0,2.0,97,0.00,,,0.00,Wunderground v.1.15,2013-05-21 04:01:00,
2013-05-21 00:02:00,59.5,58.6,29.95,NE,53,2.0,2.0,97,0.00,,,0.00,Wunderground v.1.15,2013-05-21 04:02:00,
2013-05-21 00:03:00,59.5,58.6,29.95,NE,53,1.0,2.0,97,0.00,,,0.00,Wunderground v.1.15,2013-05-21 04:03:00,
2013-05-21 00:05:00,59.5,58.6,29.95,NE,53,0.0,2.0,97,0.00,,,0.00,Wunderground v.1.15,2013-05-21 04:05:00,
2013-05-21 00:07:00,59.5,58.6,29.95,NE,53,0.0,2.0,97,0.00,,,0.00,Wunderground v.1.15,2013-05-21 04:07:00,
2013-05-21 00:13:00,59.5,58.6,29.95,NE,53,0.0,0.0,97,0.00,,,0.00,Wunderground v.1.15,2013-05-21 04:13:00,
2013-05-21 00:18:00,58.9,58.1,29.95,NE,53,0.0,0.0,97,0.00,,,0.00,Wunderground v.1.15,2013-05-21 04:18:00,
2013-05-21 00:24:00,58.7,57.9,29.95,NE,53,0.0,0.0,97,0.00,,,0.00,Wunderground v.1.15,2013-05-21 04:24:00,
2013-05-21 00:29:00,58.7,57.9,29.94,NE,53,0.0,0.0,97,0.00,,,0.00,Wunderground v.1.15,2013-05-21 04:29:00,
2013-05-21 00:34:00,58.7,57.9,29.94,NE,53,0.0,0.0,97,0.00,,,0.00,Wunderground v.1.15,2013-05-21 04:34:00,
2013-05-21 00:40:00,58.9,58.3,29.94,NE,53,3.0,3.0,98,0.00,,,0.00,Wunderground v.1.15,2013-05-21 04:40:00,
2013-05-21 00:45:00,59.2,58.6,29.94,NE,53,0.0,3.0,98,0.00,,,0.00,Wunderground v.1.15,2013-05-21 04:45:00,
2013-05-21 00:50:00,59.2,58.6,29.94,NE,53,0.0,0.0,98,0.00,,,0.00,Wunderground v.1.15,2013-05-21 04:50:00,
2013-05-21 00:56:00,59.2,58.6,29.94,NE,53,0.0,0.0,98,0.00,,,0.00,Wunderground v.1.15,2013-05-21 04:56:00,
2013-05-21 01:02:00,59.3,58.7,29.92,NE,53,0.0,0.0,98,0.00,,,0.00,Wunderground v.1.15,2013-05-21 05:02:00,
2013-05-21 01:07:00,59.3,58.7,29.92,NE,53,0.0,1.0,98,0.00,,,0.00,Wunderground v.1.15,2013-05-21 05:07:00,
2013-05-21 01:13:00,59.5,58.9,29.92,NE,53,1.0,1.0,98,0.00,,,0.00,Wunderground v.1.15,2013-05-21 05:13:00,
2013-05-21 01:18:00,59.5,58.9,29.92,NE,53,0.0,1.0,98,0.00,,,0.00,Wunderground v.1.15,2013-05-21 05:18:00,
2013-05-21 01:23:00,59.5,58.9,29.92,NE,53,0.0,0.0,98,0.00,,,0.00,Wunderground v.1.15,2013-05-21 05:23:00,
2013-05-21 01:29:00,59.3,58.7,29.92,NE,53,0.0,0.0,98,0.00,,,0.00,Wunderground v.1.15,2013-05-21 05:29:00,
2013-05-21 01:34:00,59.0,58.4,29.92,NE,53,0.0,0.0,98,0.00,,,0.00,Wunderground v.1.15,2013-05-21 05:34:00,
2013-05-21 01:40:00,59.0,58.4,29.92,NE,53,0.0,0.0,98,0.00,,,0.00,Wunderground v.1.15,2013-05-21 05:40:00,
2013-05-21 01:45:00,59.0,58.4,29.91,NE,53,0.0,0.0,98,0.00,,,0.00,Wunderground v.1.15,2013-05-21 05:45:00,
2013-05-21 01:50:00,58.9,58.3,29.91,NE,53,0.0,0.0,98,0.00,,,0.00,Wunderground v.1.15,2013-05-21 05:50:00,
2013-05-21 01:56:00,58.9,58.3,29.91,NE,53,0.0,0.0,98,0.00,,,0.00,Wunderground v.1.15,2013-05-21 05:56:00,
2013-05-21 02:01:00,59.0,58.4,29.91,NE,53,0.0,0.0,98,0.00,,,0.00,Wunderground v.1.15,2013-05-21 06:01:00,
2013-05-21 02:06:00,59.0,58.4,29.91,NE,53,0.0,0.0,98,0.00,,,0.00,Wunderground v.1.15,2013-05-21 06:06:00,
2013-05-21 02:11:00,59.0,58.4,29.91,NE,53,0.0,1.0,98,0.00,,,0.00,Wunderground v.1.15,2013-05-21 06:11:00,
2013-05-21 02:16:00,58.9,58.3,29.90,NE,53,0.0,1.0,98,0.00,,,0.00,Wunderground v.1.15,2013-05-21 06:16:00,
2013-05-21 02:21:00,59.3,58.7,29.90,NE,53,0.0,1.0,98,0.00,,,0.00,Wunderground v.1.15,2013-05-21 06:21:00,
2013-05-21 02:26:00,59.3,58.7,29.90,NE,53,0.0,1.0,98,0.00,,,0.00,Wunderground v.1.15,2013-05-21 06:26:00,
2013-05-21 02:31:00,59.3,58.7,29.89,NE,53,0.0,1.0,98,0.00,,,0.00,Wunderground v.1.15,2013-05-21 06:31:00,
2013-05-21 02:36:00,59.2,58.6,29.89,NE,53,0.0,1.0,98,0.00,,,0.00,Wunderground v.1.15,2013-05-21 06:36:00,
2013-05-21 02:41:00,59.3,58.7,29.89,NE,53,0.0,0.0,98,0.00,,,0.00,Wunderground v.1.15,2013-05-21 06:41:00,
2013-05-21 02:46:00,59.2,58.6,29.88,NE,53,0.0,0.0,98,0.00,,,0.00,Wunderground v.1.15,2013-05-21 06:46:00,
2013-05-21 02:51:00,59.0,58.4,29.88,NE,53,0.0,3.0,98,0.00,,,0.00,Wunderground v.1.15,2013-05-21 06:51:00,
2013-05-21 02:56:00,58.9,58.3,29.88,NE,53,3.0,3.0,98,0.00,,,0.00,Wunderground v.1.15,2013-05-21 06:56:00,
2013-05-21 03:01:00,58.9,58.3,29.87,NE,53,0.0,0.0,98,0.00,,,0.00,Wunderground v.1.15,2013-05-21 07:01:00,
2013-05-21 03:06:00,58.7,58.1,29.87,NE,53,0.0,2.0,98,0.00,,,0.00,Wunderground v.1.15,2013-05-21 07:06:00,
2013-05-21 03:11:00,58.6,58.0,29.87,NE,53,0.0,0.0,98,0.00,,,0.00,Wunderground v.1.15,2013-05-21 07:11:00,
2013-05-21 03:16:00,58.4,57.8,29.88,NE,53,0.0,0.0,98,0.00,,,0.00,Wunderground v.1.15,2013-05-21 07:16:00,
2013-05-21 03:21:00,58.3,57.7,29.88,NE,53,0.0,0.0,98,0.00,,,0.00,Wunderground v.1.15,2013-05-21 07:21:00,
2013-05-21 03:26:00,58.1,57.5,29.88,NE,53,0.0,0.0,98,0.00,,,0.00,Wunderground v.1.15,2013-05-21 07:26:00,
2013-05-21 03:31:00,58.1,57.5,29.88,NE,53,0.0,0.0,98,0.00,,,0.00,Wunderground v.1.15,2013-05-21 07:31:00,
2013-05-21 03:36:00,58.1,57.5,29.88,NE,53,0.0,0.0,98,0.00,,,0.00,Wunderground v.1.15,2013-05-21 07:36:00,
2013-05-21 03:41:00,58.1,57.5,29.87,NE,53,1.0,1.0,98,0.00,,,0.00,Wunderground v.1.15,2013-05-21 07:41:00,
2013-05-21 03:46:00,58.7,58.1,29.87,NE,53,1.0,2.0,98,0.00,,,0.00,Wunderground v.1.15,2013-05-21 07:46:00,
2013-05-21 03:51:00,58.9,58.3,29.87,NE,53,0.0,1.0,98,0.00,,,0.00,Wunderground v.1.15,2013-05-21 07:51:00,
2013-05-21 03:57:00,58.9,58.3,29.86,NE,53,0.0,2.0,98,0.00,,,0.00,Wunderground v.1.15,2013-05-21 07:57:00,
2013-05-21 04:02:00,59.0,58.4,29.86,NE,53,0.0,1.0,98,0.00,,,0.00,Wunderground v.1.15,2013-05-21 08:02:00,
2013-05-21 04:07:00,59.0,58.4,29.86,NE,53,0.0,2.0,98,0.00,,,0.00,Wunderground v.1.15,2013-05-21 08:07:00,
2013-05-21 04:12:00,58.9,58.3,29.86,NE,53,0.0,1.0,98,0.00,,,0.00,Wunderground v.1.15,2013-05-21 08:12:00,
2013-05-21 04:17:00,58.9,58.3,29.86,NE,53,0.0,3.0,98,0.00,,,0.00,Wunderground v.1.15,2013-05-21 08:17:00,
2013-05-21 04:22:00,58.9,58.3,29.86,NE,53,0.0,3.0,98,0.00,,,0.00,Wunderground v.1.15,2013-05-21 08:22:00,
2013-05-21 04:27:00,58.7,58.1,29.86,NE,53,0.0,3.0,98,0.00,,,0.00,Wunderground v.1.15,2013-05-21 08:27:00,
2013-05-21 04:32:00,58.7,58.1,29.86,NE,53,0.0,0.0,98,0.00,,,0.00,Wunderground v.1.15,2013-05-21 08:32:00,
2013-05-21 04:37:00,58.6,58.0,29.86,NE,53,0.0,1.0,98,0.00,,,0.00,Wunderground v.1.15,2013-05-21 08:37:00,
2013-05-21 04:42:00,58.4,57.8,29.87,NE,53,3.0,3.0,98,0.27,,,0.02,Wunderground v.1.15,2013-05-21 08:42:00,
2013-05-21 04:47:00,58.7,58.1,29.87,NE,49,2.0,5.0,98,0.12,,,0.00,Wunderground v.1.15,2013-05-21 08:47:00,
2013-05-21 04:52:00,58.9,58.3,29.87,NE,48,2.0,3.0,98,0.20,,,0.02,Wunderground v.1.15,2013-05-21 08:52:00,
2013-05-21 04:57:00,58.7,58.1,29.85,East,81,3.0,6.0,98,0.09,,,0.03,Wunderground v.1.15,2013-05-21 08:57:00,
2013-05-21 05:02:00,58.7,58.1,29.85,ESE,107,4.0,10.0,98,0.26,,,0.05,Wunderground v.1.15,2013-05-21 09:02:00,
2013-05-21 05:07:00,59.2,58.6,29.85,SE,145,2.0,10.0,98,0.17,,,0.07,Wunderground v.1.15,2013-05-21 09:07:00,
2013-05-21 05:12:00,59.6,59.0,29.82,SE,142,1.0,6.0,98,0.11,,,0.07,Wunderground v.1.15,2013-05-21 09:12:00,
2013-05-21 05:17:00,59.8,59.2,29.82,SE,142,0.0,6.0,98,0.06,,,0.07,Wunderground v.1.15,2013-05-21 09:17:00,
2013-05-21 05:22:00,59.8,59.2,29.82,SE,134,2.0,7.0,98,0.04,,,0.08,Wunderground v.1.15,2013-05-21 09:22:00,
2013-05-21 05:27:00,59.8,59.2,29.80,SSE,150,9.0,10.0,98,0.04,,,0.08,Wunderground v.1.15,2013-05-21 09:27:00,
2013-05-21 05:32:00,59.8,59.2,29.80,SSE,162,2.0,9.0,98,0.04,,,0.08,Wunderground v.1.15,2013-05-21 09:32:00,
2013-05-21 05:37:00,59.8,59.2,29.80,SSE,167,4.0,10.0,98,0.04,,,0.08,Wunderground v.1.15,2013-05-21 09:37:00,
2013-05-21 05:42:00,59.8,59.2,29.81,South,169,2.0,8.0,98,0.00,,,0.08,Wunderground v.1.15,2013-05-21 09:42:00,
2013-05-21 05:47:00,59.8,59.2,29.81,South,169,2.0,8.0,98,0.00,,,0.08,Wunderground v.1.15,2013-05-21 09:47:00,
2013-05-21 05:53:00,59.9,59.3,29.81,South,169,0.0,3.0,98,0.00,,,0.08,Wunderground v.1.15,2013-05-21 09:53:00,
2013-05-21 05:58:00,60.1,59.5,29.82,South,169,2.0,4.0,98,0.00,,,0.08,Wunderground v.1.15,2013-05-21 09:58:00,
2013-05-21 06:03:00,60.2,59.6,29.82,South,169,2.0,4.0,98,0.00,,,0.08,Wunderground v.1.15,2013-05-21 10:03:00,
2013-05-21 06:08:00,60.4,59.8,29.82,South,173,4.0,6.0,98,0.00,,,0.08,Wunderground v.1.15,2013-05-21 10:08:00,
2013-05-21 06:13:00,60.5,59.9,29.82,South,172,3.0,5.0,98,0.00,,,0.08,Wunderground v.1.15,2013-05-21 10:13:00,
2013-05-21 06:18:00,60.7,60.1,29.82,South,172,1.0,5.0,98,0.00,,,0.08,Wunderground v.1.15,2013-05-21 10:18:00,
2013-05-21 06:23:00,60.7,60.1,29.82,South,172,0.0,1.0,98,0.00,,,0.08,Wunderground v.1.15,2013-05-21 10:23:00,
2013-05-21 06:28:00,60.9,60.3,29.82,South,172,0.0,3.0,98,0.00,,,0.08,Wunderground v.1.15,2013-05-21 10:28:00,
2013-05-21 06:33:00,61.0,60.4,29.82,South,172,0.0,2.0,98,0.00,,,0.08,Wunderground v.1.15,2013-05-21 10:33:00,
2013-05-21 06:38:00,61.0,60.4,29.82,South,172,0.0,2.0,98,0.00,,,0.08,Wunderground v.1.15,2013-05-21 10:38:00,
2013-05-21 06:43:00,61.0,60.4,29.83,South,172,1.0,2.0,98,0.00,,,0.08,Wunderground v.1.15,2013-05-21 10:43:00,
2013-05-21 06:47:00,61.2,60.6,29.83,South,172,0.0,2.0,98,0.00,,,0.08,Wunderground v.1.15,2013-05-21 10:47:00,
2013-05-21 06:52:00,61.3,60.7,29.83,South,172,0.0,0.0,98,0.00,,,0.08,Wunderground v.1.15,2013-05-21 10:52:00,
2013-05-21 06:57:00,61.5,60.9,29.83,South,172,0.0,0.0,98,0.00,,,0.08,Wunderground v.1.15,2013-05-21 10:57:00,
2013-05-21 07:02:00,61.8,61.2,29.83,South,171,4.0,7.0,98,0.00,,,0.08,Wunderground v.1.15,2013-05-21 11:02:00,
2013-05-21 07:07:00,62.9,62.6,29.83,SSW,206,5.0,11.0,99,0.00,,,0.08,Wunderground v.1.15,2013-05-21 11:07:00,
2013-05-21 07:13:00,63.5,63.2,29.83,South,181,6.0,9.0,99,0.00,,,0.08,Wunderground v.1.15,2013-05-21 11:13:00,
2013-05-21 07:18:00,63.9,63.3,29.83,South,169,4.0,13.0,98,0.00,,,0.08,Wunderground v.1.15,2013-05-21 11:18:00,
2013-05-21 07:23:00,64.2,63.6,29.83,SSE,167,4.0,14.0,98,0.00,,,0.08,Wunderground v.1.15,2013-05-21 11:23:00,
2013-05-21 07:28:00,64.3,63.7,29.83,SSW,193,5.0,14.0,98,0.00,,,0.08,Wunderground v.1.15,2013-05-21 11:28:00,
2013-05-21 07:33:00,64.5,63.6,29.83,South,178,1.0,12.0,97,0.00,,,0.08,Wunderground v.1.15,2013-05-21 11:33:00,
2013-05-21 07:38:00,64.7,63.8,29.83,South,171,2.0,12.0,97,0.00,,,0.08,Wunderground v.1.15,2013-05-21 11:38:00,
2013-05-21 07:43:00,64.7,63.5,29.83,SSE,167,1.0,12.0,96,0.00,,,0.08,Wunderground v.1.15,2013-05-21 11:43:00,
2013-05-21 07:48:00,64.8,63.6,29.83,SSE,167,2.0,12.0,96,0.00,,,0.08,Wunderground v.1.15,2013-05-21 11:48:00,
2013-05-21 07:53:00,65.0,63.5,29.83,SSE,167,0.0,6.0,95,0.00,,,0.08,Wunderground v.1.15,2013-05-21 11:53:00,
2013-05-21 07:58:00,65.2,63.7,29.84,SSE,167,1.0,7.0,95,0.00,,,0.08,Wunderground v.1.15,2013-05-21 11:58:00,
2013-05-21 08:03:00,65.5,64.0,29.84,SSE,151,2.0,10.0,95,0.00,,,0.08,Wunderground v.1.15,2013-05-21 12:03:00,
2013-05-21 08:08:00,65.6,64.1,29.84,SSE,161,6.0,10.0,95,0.00,,,0.08,Wunderground v.1.15,2013-05-21 12:08:00,
2013-05-21 08:13:00,66.0,64.2,29.85,SSE,167,1.0,9.0,94,0.00,,,0.08,Wunderground v.1.15,2013-05-21 12:13:00,
2013-05-21 08:18:00,66.3,64.2,29.85,South,175,6.0,14.0,93,0.00,,,0.08,Wunderground v.1.15,2013-05-21 12:18:00,
2013-05-21 08:23:00,66.4,64.3,29.85,South,183,9.0,14.0,93,0.00,,,0.08,Wunderground v.1.15,2013-05-21 12:23:00,
2013-05-21 08:28:00,66.6,64.2,29.85,South,173,5.0,14.0,92,0.00,,,0.08,Wunderground v.1.15,2013-05-21 12:28:00,
2013-05-21 08:33:00,66.9,64.5,29.85,SSW,195,5.0,11.0,92,0.00,,,0.08,Wunderground v.1.15,2013-05-21 12:33:00,
2013-05-21 08:38:00,67.3,64.9,29.85,South,188,1.0,11.0,92,0.00,,,0.08,Wunderground v.1.15,2013-05-21 12:38:00,
2013-05-21 08:43:00,67.4,64.7,29.85,South,173,5.0,9.0,91,0.00,,,0.08,Wunderground v.1.15,2013-05-21 12:43:00,
2013-05-21 08:48:00,67.8,65.1,29.85,South,174,1.0,9.0,91,0.00,,,0.08,Wunderground v.1.15,2013-05-21 12:48:00,
2013-05-21 08:54:00,68.3,65.3,29.85,SSE,162,4.0,11.0,90,0.00,,,0.08,Wunderground v.1.15,2013-05-21 12:54:00,
2013-05-21 08:59:00,68.4,65.0,29.86,SSE,167,2.0,11.0,89,0.00,,,0.08,Wunderground v.1.15,2013-05-21 12:59:00,
2013-05-21 09:04:00,68.6,64.9,29.86,SSE,165,1.0,8.0,88,0.00,,,0.08,Wunderground v.1.15,2013-05-21 13:04:00,
2013-05-21 09:09:00,69.1,65.4,29.86,SSE,164,0.0,8.0,88,0.00,,,0.08,Wunderground v.1.15,2013-05-21 13:09:00,
2013-05-21 09:14:00,69.3,64.9,29.86,South,175,2.0,9.0,86,0.00,,,0.08,Wunderground v.1.15,2013-05-21 13:14:00,
2013-05-21 09:19:00,69.8,65.1,29.86,South,175,1.0,9.0,85,0.00,,,0.08,Wunderground v.1.15,2013-05-21 13:19:00,
2013-05-21 09:24:00,70.1,65.0,29.86,South,179,7.0,8.0,84,0.00,,,0.08,Wunderground v.1.15,2013-05-21 13:24:00,
2013-05-21 09:29:00,70.6,65.5,29.86,SSE,163,2.0,10.0,84,0.00,,,0.08,Wunderground v.1.15,2013-05-21 13:29:00,
2013-05-21 09:34:00,70.8,65.0,29.86,SSE,168,2.0,8.0,82,0.00,,,0.08,Wunderground v.1.15,2013-05-21 13:34:00,
2013-05-21 09:39:00,70.8,64.7,29.86,South,178,4.0,9.0,81,0.00,,,0.08,Wunderground v.1.15,2013-05-21 13:39:00,
2013-05-21 09:44:00,71.1,64.6,29.86,South,175,6.0,10.0,80,0.00,,,0.08,Wunderground v.1.15,2013-05-21 13:44:00,
2013-05-21 09:49:00,71.5,65.0,29.86,South,178,3.0,10.0,80,0.00,,,0.08,Wunderground v.1.15,2013-05-21 13:49:00,
2013-05-21 09:54:00,71.8,64.6,29.86,South,180,0.0,8.0,78,0.00,,,0.08,Wunderground v.1.15,2013-05-21 13:54:00,
2013-05-21 09:59:00,72.1,64.9,29.87,South,180,4.0,8.0,78,0.00,,,0.08,Wunderground v.1.15,2013-05-21 13:59:00,
2013-05-21 10:04:00,72.3,65.4,29.87,South,182,4.0,5.0,79,0.00,,,0.08,Wunderground v.1.15,2013-05-21 14:04:00,
2013-05-21 10:09:00,72.0,64.8,29.87,SSW,193,3.0,5.0,78,0.00,,,0.08,Wunderground v.1.15,2013-05-21 14:09:00,
2013-05-21 10:14:00,72.0,64.8,29.86,SSW,193,1.0,4.0,78,0.00,,,0.08,Wunderground v.1.15,2013-05-21 14:14:00,
2013-05-21 10:19:00,72.1,64.5,29.86,SSW,193,1.0,4.0,77,0.00,,,0.08,Wunderground v.1.15,2013-05-21 14:19:00,
2013-05-21 10:24:00,72.1,64.5,29.86,SSW,196,1.0,4.0,77,0.00,,,0.08,Wunderground v.1.15,2013-05-21 14:24:00,
2013-05-21 10:29:00,72.0,64.4,29.86,SSW,200,1.0,4.0,77,0.00,,,0.08,Wunderground v.1.15,2013-05-21 14:29:00,
2013-05-21 10:34:00,71.6,64.0,29.86,NNW,331,12.0,12.0,77,0.00,,,0.08,Wunderground v.1.15,2013-05-21 14:34:00,
2013-05-21 10:39:00,68.4,62.0,29.86,NNW,329,8.0,14.0,80,0.00,,,0.08,Wunderground v.1.15,2013-05-21 14:39:00,
2013-05-21 10:44:00,67.6,62.9,29.88,North,355,5.0,10.0,85,0.00,,,0.08,Wunderground v.1.15,2013-05-21 14:44:00,
2013-05-21 10:49:00,67.8,63.1,29.88,NNW,342,2.0,13.0,85,0.00,,,0.08,Wunderground v.1.15,2013-05-21 14:49:00,
2013-05-21 10:54:00,67.8,63.1,29.88,NNW,340,2.0,13.0,85,0.00,,,0.08,Wunderground v.1.15,2013-05-21 14:54:00,
2013-05-21 10:59:00,67.4,62.4,29.89,NNW,327,5.0,6.0,84,0.00,,,0.08,Wunderground v.1.15,2013-05-21 14:59:00,
2013-05-21 11:04:00,65.6,60.0,29.89,NNW,337,12.0,18.0,82,0.00,,,0.08,Wunderground v.1.15,2013-05-21 15:04:00,
2013-05-21 11:09:00,64.0,59.4,29.89,NNW,340,5.0,8.0,85,0.00,,,0.08,Wunderground v.1.15,2013-05-21 15:09:00,
2013-05-21 11:14:00,63.1,59.2,29.90,North,355,9.0,15.0,87,0.00,,,0.08,Wunderground v.1.15,2013-05-21 15:14:00,
2013-05-21 11:19:00,62.0,57.8,29.90,NNW,341,3.0,7.0,86,0.00,,,0.08,Wunderground v.1.15,2013-05-21 15:19:00,
2013-05-21 11:24:00,60.9,57.0,29.90,North,350,7.0,18.0,87,0.00,,,0.08,Wunderground v.1.15,2013-05-21 15:24:00,
2013-05-21 11:29:00,60.1,56.5,29.91,NNW,335,12.0,12.0,88,0.00,,,0.08,Wunderground v.1.15,2013-05-21 15:29:00,
2013-05-21 11:34:00,59.5,56.3,29.91,North,355,9.0,16.0,89,0.00,,,0.08,Wunderground v.1.15,2013-05-21 15:34:00,
2013-05-21 11:39:00,59.2,56.3,29.91,North,350,9.0,9.0,90,0.00,,,0.08,Wunderground v.1.15,2013-05-21 15:39:00,
2013-05-21 11:44:00,59.0,56.1,29.91,NNW,346,4.0,15.0,90,0.00,,,0.08,Wunderground v.1.15,2013-05-21 15:44:00,
2013-05-21 11:49:00,59.2,56.3,29.91,North,360,10.0,15.0,90,0.00,,,0.08,Wunderground v.1.15,2013-05-21 15:49:00,
2013-05-21 11:54:00,58.9,55.7,29.91,North,9,3.0,14.0,89,0.00,,,0.08,Wunderground v.1.15,2013-05-21 15:54:00,
2013-05-21 11:59:00,58.6,55.4,29.92,NNE,15,6.0,14.0,89,0.00,,,0.08,Wunderground v.1.15,2013-05-21 15:59:00,
2013-05-21 12:05:00,58.3,55.4,29.92,NNE,15,7.0,11.0,90,0.00,,,0.08,Wunderground v.1.15,2013-05-21 16:05:00,
2013-05-21 12:10:00,57.6,54.7,29.92,North,349,6.0,13.0,90,0.00,,,0.08,Wunderground v.1.15,2013-05-21 16:10:00,
2013-05-21 12:15:00,57.3,54.4,29.93,NNE,19,9.0,17.0,90,0.00,,,0.08,Wunderground v.1.15,2013-05-21 16:15:00,
2013-05-21 12:20:00,57.2,54.6,29.93,NNE,26,9.0,12.0,91,0.00,,,0.08,Wunderground v.1.15,2013-05-21 16:20:00,
2013-05-21 12:25:00,57.2,54.6,29.93,ENE,59,7.0,20.0,91,0.00,,,0.08,Wunderground v.1.15,2013-05-21 16:25:00,
2013-05-21 12:30:00,57.5,54.9,29.93,NNE,14,5.0,6.0,91,0.00,,,0.08,Wunderground v.1.15,2013-05-21 16:30:00,
2013-05-21 12:35:00,57.8,55.2,29.93,North,5,6.0,17.0,91,0.00,,,0.08,Wunderground v.1.15,2013-05-21 16:35:00,
2013-05-21 12:40:00,58.6,55.7,29.93,North,355,3.0,9.0,90,0.00,,,0.08,Wunderground v.1.15,2013-05-21 16:40:00,
2013-05-21 12:45:00,59.0,55.8,29.93,North,350,11.0,19.0,89,0.00,,,0.08,Wunderground v.1.15,2013-05-21 16:45:00,
2013-05-21 12:50:00,58.9,55.4,29.93,North,360,16.0,16.0,88,0.00,,,0.08,Wunderground v.1.15,2013-05-21 16:50:00,
2013-05-21 12:55:00,59.0,55.4,29.93,North,355,9.0,20.0,88,0.00,,,0.08,Wunderground v.1.15,2013-05-21 16:55:00,
2013-05-21 13:00:00,59.5,55.6,29.94,North,360,10.0,11.0,87,0.00,,,0.08,Wunderground v.1.15,2013-05-21 17:00:00,
2013-05-21 13:05:00,59.9,56.0,29.94,North,360,11.0,18.0,87,0.00,,,0.08,Wunderground v.1.15,2013-05-21 17:05:00,
2013-05-21 13:10:00,60.1,55.6,29.94,North,360,10.0,15.0,85,0.00,,,0.08,Wunderground v.1.15,2013-05-21 17:10:00,
2013-05-21 13:15:00,60.9,56.0,29.94,North,351,8.0,19.0,84,0.00,,,0.08,Wunderground v.1.15,2013-05-21 17:15:00,
2013-05-21 13:20:00,61.8,56.2,29.94,North,9,10.0,10.0,82,0.00,,,0.08,Wunderground v.1.15,2013-05-21 17:20:00,
2013-05-21 13:25:00,61.8,55.9,29.94,North,360,5.0,18.0,81,0.00,,,0.08,Wunderground v.1.15,2013-05-21 17:25:00,
2013-05-21 13:30:00,62.1,56.2,29.92,NNE,13,1.0,9.0,81,0.00,,,0.08,Wunderground v.1.15,2013-05-21 17:30:00,
2013-05-21 13:35:00,62.7,56.8,29.92,NNE,16,3.0,11.0,81,0.00,,,0.08,Wunderground v.1.15,2013-05-21 17:35:00,
2013-05-21 13:40:00,62.4,56.1,29.92,North,5,6.0,6.0,80,0.00,,,0.08,Wunderground v.1.15,2013-05-21 17:40:00,
2013-05-21 13:45:00,62.3,55.7,29.92,NNW,346,3.0,11.0,79,0.00,,,0.08,Wunderground v.1.15,2013-05-21 17:45:00,
2013-05-21 13:50:00,63.1,57.2,29.92,North,350,4.0,7.0,81,0.00,,,0.08,Wunderground v.1.15,2013-05-21 17:50:00,
2013-05-21 13:55:00,63.4,56.8,29.92,NNW,337,1.0,17.0,79,0.00,,,0.08,Wunderground v.1.15,2013-05-21 17:55:00,
2013-05-21 14:00:00,63.5,55.8,29.93,NNW,344,4.0,10.0,76,0.00,,,0.08,Wunderground v.1.15,2013-05-21 18:00:00,
2013-05-21 14:05:00,62.9,55.6,29.93,NW,321,6.0,13.0,77,0.00,,,0.08,Wunderground v.1.15,2013-05-21 18:05:00,
2013-05-21 14:10:00,62.6,56.0,29.93,NNW,327,2.0,5.0,79,0.00,,,0.08,Wunderground v.1.15,2013-05-21 18:10:00,
2013-05-21 14:15:00,62.6,55.6,29.93,NNE,13,9.0,14.0,78,0.00,,,0.08,Wunderground v.1.15,2013-05-21 18:15:00,
2013-05-21 14:20:00,62.4,55.4,29.93,NE,44,1.0,9.0,78,0.00,,,0.08,Wunderground v.1.15,2013-05-21 18:20:00,
2013-05-21 14:25:00,62.3,55.4,29.93,North,350,6.0,10.0,78,0.00,,,0.08,Wunderground v.1.15,2013-05-21 18:25:00,
2013-05-21 14:30:00,62.3,55.4,29.93,NNW,344,3.0,9.0,78,0.00,,,0.08,Wunderground v.1.15,2013-05-21 18:30:00,
2013-05-21 14:35:00,62.4,55.1,29.93,NNW,335,7.0,13.0,77,0.00,,,0.08,Wunderground v.1.15,2013-05-21 18:35:00,
2013-05-21 14:40:00,62.6,55.6,29.93,North,349,2.0,9.0,78,0.00,,,0.08,Wunderground v.1.15,2013-05-21 18:40:00,
2013-05-21 14:45:00,62.6,55.3,29.93,NNW,340,4.0,13.0,77,0.00,,,0.08,Wunderground v.1.15,2013-05-21 18:45:00,
2013-05-21 14:50:00,62.9,55.6,29.93,North,349,4.0,8.0,77,0.00,,,0.08,Wunderground v.1.15,2013-05-21 18:50:00,
2013-05-21 14:55:00,63.1,55.8,29.93,NNW,327,5.0,13.0,77,0.00,,,0.08,Wunderground v.1.15,2013-05-21 18:55:00,
2013-05-21 15:00:00,63.2,55.9,29.93,NNW,346,5.0,6.0,77,0.00,,,0.08,Wunderground v.1.15,2013-05-21 19:00:00,
2013-05-21 15:05:00,63.4,55.7,29.93,NNW,338,5.0,13.0,76,0.00,,,0.08,Wunderground v.1.15,2013-05-21 19:05:00,
2013-05-21 15:10:00,63.9,56.2,29.93,North,360,6.0,10.0,76,0.00,,,0.08,Wunderground v.1.15,2013-05-21 19:10:00,
2013-05-21 15:15:00,64.8,57.1,29.92,North,355,5.0,10.0,76,0.00,,,0.08,Wunderground v.1.15,2013-05-21 19:15:00,
2013-05-21 15:20:00,65.0,56.1,29.92,NNW,340,3.0,10.0,73,0.00,,,0.08,Wunderground v.1.15,2013-05-21 19:20:00,
2013-05-21 15:25:00,65.3,56.4,29.92,NNW,348,5.0,13.0,73,0.00,,,0.08,Wunderground v.1.15,2013-05-21 19:25:00,
2013-05-21 15:31:00,65.8,56.5,29.91,NNE,32,4.0,7.0,72,0.00,,,0.08,Wunderground v.1.15,2013-05-21 19:31:00,
2013-05-21 15:36:00,66.4,57.5,29.91,North,355,5.0,10.0,73,0.00,,,0.08,Wunderground v.1.15,2013-05-21 19:36:00,
2013-05-21 15:41:00,67.3,58.3,29.91,NNW,344,7.0,7.0,73,0.00,,,0.08,Wunderground v.1.15,2013-05-21 19:41:00,
2013-05-21 15:46:00,67.3,57.2,29.90,North,11,1.0,13.0,70,0.00,,,0.08,Wunderground v.1.15,2013-05-21 19:46:00,
2013-05-21 15:51:00,67.1,57.4,29.90,North,360,6.0,6.0,71,0.00,,,0.08,Wunderground v.1.15,2013-05-21 19:51:00,
2013-05-21 15:56:00,67.6,57.1,29.90,NNW,342,6.0,12.0,69,0.00,,,0.08,Wunderground v.1.15,2013-05-21 19:56:00,
2013-05-21 16:01:00,67.9,57.4,29.89,NNW,341,7.0,9.0,69,0.00,,,0.08,Wunderground v.1.15,2013-05-21 20:01:00,
2013-05-21 16:06:00,67.8,57.3,29.89,NNW,334,3.0,9.0,69,0.00,,,0.08,Wunderground v.1.15,2013-05-21 20:06:00,
2013-05-21 16:11:00,67.4,56.9,29.89,NNW,344,5.0,11.0,69,0.00,,,0.08,Wunderground v.1.15,2013-05-21 20:11:00,
2013-05-21 16:16:00,66.6,56.5,29.88,NW,325,4.0,12.0,70,0.00,,,0.08,Wunderground v.1.15,2013-05-21 20:16:00,
2013-05-21 16:21:00,66.8,57.1,29.88,NNW,331,4.0,7.0,71,0.00,,,0.08,Wunderground v.1.15,2013-05-21 20:21:00,
2013-05-21 16:26:00,66.6,56.9,29.88,NNW,345,5.0,12.0,71,0.00,,,0.08,Wunderground v.1.15,2013-05-21 20:26:00,
2013-05-21 16:31:00,66.9,56.4,29.88,North,9,6.0,13.0,69,0.00,,,0.08,Wunderground v.1.15,2013-05-21 20:31:00,
2013-05-21 16:36:00,66.6,56.1,29.88,NW,323,5.0,13.0,69,0.00,,,0.08,Wunderground v.1.15,2013-05-21 20:36:00,
2013-05-21 16:41:00,66.6,56.9,29.88,North,355,1.0,9.0,71,0.00,,,0.08,Wunderground v.1.15,2013-05-21 20:41:00,
2013-05-21 16:46:00,66.4,56.3,29.87,North,355,1.0,11.0,70,0.00,,,0.08,Wunderground v.1.15,2013-05-21 20:46:00,
2013-05-21 16:51:00,66.4,56.7,29.87,NNW,347,3.0,7.0,71,0.00,,,0.08,Wunderground v.1.15,2013-05-21 20:51:00,
2013-05-21 16:56:00,66.4,56.7,29.87,North,355,1.0,10.0,71,0.00,,,0.08,Wunderground v.1.15,2013-05-21 20:56:00,
2013-05-21 17:01:00,66.6,56.9,29.87,North,355,6.0,6.0,71,0.00,,,0.08,Wunderground v.1.15,2013-05-21 21:01:00,
2013-05-21 17:06:00,66.6,56.5,29.87,North,360,3.0,9.0,70,0.00,,,0.08,Wunderground v.1.15,2013-05-21 21:06:00,
2013-05-21 17:11:00,66.8,57.1,29.87,NNW,340,5.0,9.0,71,0.00,,,0.08,Wunderground v.1.15,2013-05-21 21:11:00,
2013-05-21 17:16:00,67.1,56.6,29.87,NNW,340,6.0,9.0,69,0.00,,,0.08,Wunderground v.1.15,2013-05-21 21:16:00,
2013-05-21 17:21:00,67.4,56.9,29.87,North,360,5.0,6.0,69,0.00,,,0.08,Wunderground v.1.15,2013-05-21 21:21:00,
2013-05-21 17:26:00,67.4,56.9,29.87,North,360,0.0,7.0,69,0.00,,,0.08,Wunderground v.1.15,2013-05-21 21:26:00,
2013-05-21 17:31:00,67.6,57.9,29.86,North,360,1.0,2.0,71,0.00,,,0.08,Wunderground v.1.15,2013-05-21 21:31:00,
2013-05-21 17:36:00,67.3,56.8,29.86,NNW,340,0.0,9.0,69,0.00,,,0.08,Wunderground v.1.15,2013-05-21 21:36:00,
2013-05-21 17:41:00,66.8,56.3,29.86,NNW,333,0.0,6.0,69,0.00,,,0.08,Wunderground v.1.15,2013-05-21 21:41:00,
2013-05-21 17:46:00,66.8,56.7,29.85,North,355,5.0,6.0,70,0.00,,,0.08,Wunderground v.1.15,2013-05-21 21:46:00,
2013-05-21 17:51:00,66.3,56.6,29.85,North,351,2.0,4.0,71,0.00,,,0.08,Wunderground v.1.15,2013-05-21 21:51:00,
2013-05-21 17:56:00,66.0,56.3,29.85,North,350,4.0,6.0,71,0.00,,,0.08,Wunderground v.1.15,2013-05-21 21:56:00,
2013-05-21 18:01:00,65.3,55.7,29.85,NNW,340,4.0,7.0,71,0.00,,,0.08,Wunderground v.1.15,2013-05-21 22:01:00,
2013-05-21 18:06:00,65.0,55.4,29.85,NNW,348,5.0,9.0,71,0.00,,,0.08,Wunderground v.1.15,2013-05-21 22:06:00,
2013-05-21 18:11:00,64.8,55.6,29.85,NNW,344,0.0,7.0,72,0.00,,,0.08,Wunderground v.1.15,2013-05-21 22:11:00,
2013-05-21 18:17:00,64.8,55.2,29.85,NNW,343,1.0,7.0,71,0.00,,,0.08,Wunderground v.1.15,2013-05-21 22:17:00,
2013-05-21 18:22:00,64.7,55.8,29.85,NNW,344,0.0,5.0,73,0.00,,,0.08,Wunderground v.1.15,2013-05-21 22:22:00,
2013-05-21 18:27:00,64.7,55.8,29.84,NNW,344,2.0,10.0,73,0.00,,,0.08,Wunderground v.1.15,2013-05-21 22:27:00,
2013-05-21 18:32:00,64.7,55.8,29.84,NNW,344,2.0,6.0,73,0.00,,,0.08,Wunderground v.1.15,2013-05-21 22:32:00,
2013-05-21 18:37:00,64.7,55.8,29.84,NNW,344,3.0,7.0,73,0.00,,,0.08,Wunderground v.1.15,2013-05-21 22:37:00,
2013-05-21 18:42:00,64.5,56.0,29.84,NNW,348,1.0,6.0,74,0.00,,,0.08,Wunderground v.1.15,2013-05-21 22:42:00,
2013-05-21 18:47:00,64.5,56.0,29.84,North,351,5.0,6.0,74,0.00,,,0.08,Wunderground v.1.15,2013-05-21 22:47:00,
2013-05-21 18:52:00,64.5,56.0,29.84,North,360,4.0,6.0,74,0.00,,,0.08,Wunderground v.1.15,2013-05-21 22:52:00,
2013-05-21 18:57:00,64.5,56.0,29.83,North,360,5.0,6.0,74,0.00,,,0.08,Wunderground v.1.15,2013-05-21 22:57:00,
2013-05-21 19:02:00,64.5,56.0,29.83,NNW,348,0.0,5.0,74,0.00,,,0.08,Wunderground v.1.15,2013-05-21 23:02:00,
2013-05-21 19:07:00,64.3,55.8,29.83,North,349,2.0,6.0,74,0.00,,,0.08,Wunderground v.1.15,2013-05-21 23:07:00,
2013-05-21 19:12:00,63.9,56.2,29.83,North,355,7.0,7.0,76,0.00,,,0.08,Wunderground v.1.15,2013-05-21 23:12:00,
2013-05-21 19:17:00,63.5,55.8,29.83,North,355,2.0,12.0,76,0.00,,,0.08,Wunderground v.1.15,2013-05-21 23:17:00,
2013-05-21 19:22:00,63.2,55.9,29.83,North,355,5.0,9.0,77,0.00,,,0.08,Wunderground v.1.15,2013-05-21 23:22:00,
2013-05-21 19:27:00,62.9,55.6,29.83,North,360,5.0,9.0,77,0.00,,,0.08,Wunderground v.1.15,2013-05-21 23:27:00,
2013-05-21 19:32:00,62.6,55.3,29.83,North,5,2.0,6.0,77,0.00,,,0.08,Wunderground v.1.15,2013-05-21 23:32:00,
2013-05-21 19:37:00,62.4,55.4,29.83,North,5,7.0,10.0,78,0.00,,,0.08,Wunderground v.1.15,2013-05-21 23:37:00,
2013-05-21 19:42:00,62.3,55.4,29.83,North,360,3.0,5.0,78,0.00,,,0.08,Wunderground v.1.15,2013-05-21 23:42:00,
2013-05-21 19:47:00,62.1,55.5,29.83,North,360,0.0,5.0,79,0.00,,,0.08,Wunderground v.1.15,2013-05-21 23:47:00,
2013-05-21 19:52:00,62.0,55.4,29.83,North,5,4.0,5.0,79,0.00,,,0.08,Wunderground v.1.15,2013-05-21 23:52:00,
2013-05-21 19:57:00,61.8,55.2,29.82,North,5,1.0,5.0,79,0.00,,,0.08,Wunderground v.1.15,2013-05-21 23:57:00,
2013-05-21 20:02:00,61.6,55.4,29.82,North,360,1.0,4.0,80,0.00,,,0.08,Wunderground v.1.15,2013-05-22 00:02:00,
2013-05-21 20:07:00,61.6,55.4,29.82,NW,309,7.0,9.0,80,0.00,,,0.08,Wunderground v.1.15,2013-05-22 00:07:00,
2013-05-21 20:12:00,61.5,55.6,29.84,NW,326,5.0,11.0,81,0.00,,,0.08,Wunderground v.1.15,2013-05-22 00:12:00,
2013-05-21 20:17:00,61.0,55.5,29.84,NW,319,11.0,12.0,82,0.00,,,0.08,Wunderground v.1.15,2013-05-22 00:17:00,
2013-05-21 20:22:00,59.8,55.0,29.84,NW,311,23.0,29.0,84,2.29,,,0.11,Wunderground v.1.15,2013-05-22 00:22:00,
2013-05-21 20:27:00,59.6,56.4,29.90,NNW,343,3.0,31.0,89,0.83,,,0.29,Wunderground v.1.15,2013-05-22 00:27:00,
2013-05-21 20:32:00,59.6,56.7,29.90,NNW,336,3.0,11.0,90,0.28,,,0.33,Wunderground v.1.15,2013-05-22 00:32:00,
2013-05-21 20:37:00,59.6,57.0,29.90,NNW,337,3.0,12.0,91,0.27,,,0.36,Wunderground v.1.15,2013-05-22 00:37:00,
2013-05-21 20:42:00,59.3,57.0,29.89,North,360,11.0,16.0,92,0.13,,,0.37,Wunderground v.1.15,2013-05-22 00:42:00,
2013-05-21 20:47:00,59.2,57.2,29.89,NNE,22,6.0,16.0,93,0.09,,,0.38,Wunderground v.1.15,2013-05-22 00:47:00,
2013-05-21 20:52:00,59.0,57.0,29.89,ENE,75,6.0,10.0,93,0.09,,,0.38,Wunderground v.1.15,2013-05-22 00:52:00,
2013-05-21 20:57:00,59.0,57.0,29.86,ENE,72,5.0,13.0,93,0.19,,,0.40,Wunderground v.1.15,2013-05-22 00:57:00,
2013-05-21 21:02:00,58.9,57.2,29.86,ENE,78,4.0,11.0,94,0.10,,,0.40,Wunderground v.1.15,2013-05-22 01:02:00,
2013-05-21 21:07:00,58.9,57.2,29.86,ENE,78,2.0,18.0,94,0.09,,,0.41,Wunderground v.1.15,2013-05-22 01:07:00,
2013-05-21 21:12:00,58.9,57.2,29.83,SE,131,7.0,9.0,94,0.06,,,0.41,Wunderground v.1.15,2013-05-22 01:12:00,
2013-05-21 21:17:00,58.7,57.0,29.83,ESE,107,11.0,20.0,94,0.05,,,0.42,Wunderground v.1.15,2013-05-22 01:17:00,
2013-05-21 21:22:00,58.9,57.2,29.83,WSW,253,9.0,11.0,94,0.05,,,0.42,Wunderground v.1.15,2013-05-22 01:22:00,
2013-05-21 21:27:00,59.0,57.0,29.85,SW,227,8.0,15.0,93,0.05,,,0.42,Wunderground v.1.15,2013-05-22 01:27:00,
2013-05-21 21:32:00,59.0,57.0,29.85,WSW,247,5.0,8.0,93,0.00,,,0.42,Wunderground v.1.15,2013-05-22 01:32:00,
2013-05-21 21:37:00,58.9,57.2,29.85,WSW,246,3.0,8.0,94,0.00,,,0.42,Wunderground v.1.15,2013-05-22 01:37:00,
2013-05-21 21:42:00,58.9,57.2,29.84,WSW,246,7.0,7.0,94,0.00,,,0.42,Wunderground v.1.15,2013-05-22 01:42:00,
2013-05-21 21:47:00,58.7,57.0,29.84,WSW,248,3.0,7.0,94,0.00,,,0.42,Wunderground v.1.15,2013-05-22 01:47:00,
2013-05-21 21:52:00,58.7,57.0,29.84,WSW,248,0.0,4.0,94,0.00,,,0.42,Wunderground v.1.15,2013-05-22 01:52:00,
2013-05-21 21:57:00,58.6,56.9,29.83,WSW,248,0.0,4.0,94,0.00,,,0.42,Wunderground v.1.15,2013-05-22 01:57:00,
2013-05-21 22:02:00,58.4,57.0,29.83,WSW,248,2.0,4.0,95,0.00,,,0.42,Wunderground v.1.15,2013-05-22 02:02:00,
2013-05-21 22:07:00,58.3,56.9,29.83,WSW,248,0.0,4.0,95,0.00,,,0.42,Wunderground v.1.15,2013-05-22 02:07:00,
2013-05-21 22:12:00,58.3,56.9,29.83,WSW,248,0.0,1.0,95,0.00,,,0.42,Wunderground v.1.15,2013-05-22 02:12:00,
2013-05-21 22:17:00,58.1,56.7,29.83,WSW,248,0.0,1.0,95,0.00,,,0.42,Wunderground v.1.15,2013-05-22 02:17:00,
2013-05-21 22:22:00,58.0,56.6,29.83,WSW,248,1.0,3.0,95,0.00,,,0.42,Wunderground v.1.15,2013-05-22 02:22:00,
2013-05-21 22:27:00,57.8,56.4,29.82,WSW,248,0.0,3.0,95,0.00,,,0.42,Wunderground v.1.15,2013-05-22 02:27:00,
2013-05-21 22:32:00,57.6,56.2,29.82,WSW,248,0.0,1.0,95,0.00,,,0.42,Wunderground v.1.15,2013-05-22 02:32:00,
2013-05-21 22:37:00,57.5,56.1,29.82,WSW,248,0.0,1.0,95,0.00,,,0.42,Wunderground v.1.15,2013-05-22 02:37:00,
2013-05-21 22:42:00,57.5,56.4,29.82,WSW,248,0.0,0.0,96,0.00,,,0.42,Wunderground v.1.15,2013-05-22 02:42:00,
2013-05-21 22:47:00,57.5,56.4,29.82,WSW,248,1.0,1.0,96,0.00,,,0.42,Wunderground v.1.15,2013-05-22 02:47:00,
2013-05-21 22:52:00,57.5,56.4,29.82,WSW,248,3.0,4.0,96,0.00,,,0.42,Wunderground v.1.15,2013-05-22 02:52:00,
2013-05-21 22:57:00,57.3,56.2,29.81,SW,232,0.0,5.0,96,0.00,,,0.42,Wunderground v.1.15,2013-05-22 02:57:00,
2013-05-21 23:02:00,57.3,56.2,29.81,SW,231,2.0,3.0,96,0.00,,,0.42,Wunderground v.1.15,2013-05-22 03:02:00,
2013-05-21 23:08:00,57.3,56.2,29.81,SW,229,0.0,5.0,96,0.00,,,0.42,Wunderground v.1.15,2013-05-22 03:08:00,
2013-05-21 23:13:00,57.3,56.2,29.81,SW,229,2.0,4.0,96,0.00,,,0.42,Wunderground v.1.15,2013-05-22 03:13:00,
2013-05-21 23:18:00,57.2,56.1,29.81,SW,229,0.0,5.0,96,0.00,,,0.42,Wunderground v.1.15,2013-05-22 03:18:00,
2013-05-21 23:23:00,57.2,56.1,29.81,SW,228,0.0,4.0,96,0.00,,,0.42,Wunderground v.1.15,2013-05-22 03:23:00,
2013-05-21 23:28:00,57.0,55.9,29.81,SW,228,0.0,4.0,96,0.00,,,0.42,Wunderground v.1.15,2013-05-22 03:28:00,
2013-05-21 23:33:00,57.2,56.4,29.81,SSW,196,3.0,5.0,97,0.00,,,0.42,Wunderground v.1.15,2013-05-22 03:33:00,
2013-05-21 23:38:00,57.2,56.4,29.81,SSE,159,2.0,7.0,97,0.00,,,0.42,Wunderground v.1.15,2013-05-22 03:38:00,
2013-05-21 23:43:00,57.2,56.4,29.78,SE,146,0.0,6.0,97,0.00,,,0.42,Wunderground v.1.15,2013-05-22 03:43:00,
2013-05-21 23:48:00,57.3,56.5,29.78,SE,146,0.0,6.0,97,0.00,,,0.42,Wunderground v.1.15,2013-05-22 03:48:00,
2013-05-21 23:53:00,57.2,56.4,29.78,SE,146,1.0,3.0,97,0.00,,,0.42,Wunderground v.1.15,2013-05-22 03:53:00,
2013-05-21 23:58:00,57.0,56.2,29.79,SE,146,1.0,4.0,97,0.00,,,0.42,Wunderground v.1.15,2013-05-22 03:58:00,